RH
29 50 70 82 80 84 59 50 44 39 41 45 50 50 62 69 76 74 68 76 82 89 98 96 97 97 96 96 90 89 91 92 92 95 94 90 88 81 78 80 81 66 52
64 71 82 74 81 64 54 46 44 44 43 43 44 48 70 87 92 84 82 84 86 92 97 97 97 96 97 97 95 89 78 81 78 88 92 89 85 88 87 85 80 72 53
91 87 76 66 78 68 41 34 34 36 35 40 41 44 56 63 80 80 94 96 92 88 96 96 96 96 97 97 97 82 89 88 91 98 96 98 91 84 84 80 73 68 64
95 89 66 81 86 63 38 35 20 8 7 10 11 8 7 6 9 27 45 80 86 94 96 93 96 96 96 98 97 90 95 96 96 92 90 81 81 84 83 80 69 69 62
89 87 63 74 84 59 42 40 24 9 5 6 9 11 10 6 5 18 53 60 63 52 84 96 97 96 97 96 96 97 95 95 91 94 84 63 65 90 89 84 66 17 9
75 71 60 58 58 62 56 53 53 30 11 19 32 44 44 39 25 8 8 29 57 67 54 58 64 95 96 96 96 95 83 95 89 89 67 33 24 22 12 9 9 10 11
57 46 68 48 55 56 57 59 63 61 37 49 66 59 40 30 22 15 8 5 23 73 75 77 79 71 64 72 59 78 96 86 11 21 14 8 8 9 10 11 11 11 15
47 42 51 65 35 31 38 60 66 70 72 72 71 64 48 42 37 24 14 8 6 10 14 9 8 7 11 24 98 97 88 35 7 8 10 11 11 15 20 24 26 27 29
41 38 36 56 53 32 32 42 55 64 72 75 52 46 46 50 46 34 22 16 12 10 9 9 8 8 7 7 13 51 17 9 11 12 11 12 24 31 31 32 34 33 28
24 35 30 23 37 39 30 30 34 42 51 40 31 38 48 48 45 37 31 27 25 22 19 16 14 12 12 11 11 11 11 12 12 12 14 29 36 35 38 37 32 25 20
16 16 19 18 11 19 22 13 13 15 18 26 34 37 49 50 23 14 13 14 14 16 16 17 18 18 17 17 15 14 14 24 29 31 35 36 37 42 41 33 25 22 21
30 16 12 16 17 11 9 9 10 11 17 38 32 35 46 29 15 15 19 24 31 40 43 35 21 18 19 25 28 28 35 38 38 39 41 42 44 42 37 32 31 31 27
52 36 32 25 14 19 17 11 14 13 29 34 22 27 23 16 15 19 22 27 31 49 56 40 32 38 40 40 38 41 49 51 48 49 52 55 49 42 39 37 37 36 34
62 53 39 28 23 23 25 17 15 16 24 22 22 20 17 16 21 24 29 38 44 44 50 59 58 62 59 55 63 64 65 61 57 57 60 58 54 51 43 39 34 32 32
68 63 58 58 41 45 44 26 17 21 21 20 22 20 21 24 22 23 33 41 53 59 60 60 69 74 66 54 55 68 75 74 71 69 69 67 64 52 47 41 38 36 31
83 65 63 77 73 68 62 53 30 30 38 40 40 37 35 28 24 36 51 61 64 67 74 71 77 72 66 60 61 61 75 78 79 79 79 74 61 55 51 47 45 36 37
96 93 66 75 81 72 77 89 91 64 50 54 54 48 35 32 43 56 62 72 78 76 82 87 80 75 77 73 70 71 71 77 79 81 75 64 57 56 52 51 48 46 48
97 97 97 89 82 68 55 71 76 70 77 50 42 43 50 53 70 91 90 85 81 91 84 78 82 78 76 74 76 74 76 80 78 72 70 71 62 59 56 55 57 55 52
84 89 97 98 92 95 94 88 79 99 98 95 90 80 96 65 93 97 98 96 83 82 81 81 80 81 83 84 85 76 74 86 83 82 84 74 74 72 70 69 65 61 58
83 86 91 98 95 96 97 97 97 98 97 97 97 99 98 97 99 98 98 97 84 86 83 77 77 78 83 83 91 89 82 92 94 90 79 77 75 76 78 74 66 62 62
61 64 60 68 83 84 96 98 98 97 98 97 98 98 98 98 98 97 98 95 92 98 91 88 92 93 95 97 95 91 84 93 92 93 88 82 81 81 82 80 75 72 69
52 60 71 74 76 94 97 91 93 96 96 97 97 95 94 95 94 92 93 88 83 81 89 97 98 100 100 100 99 98 96 90 90 97 96 95 94 96 88 83 79 82 90
69 61 64 69 76 76 77 78 78 89 96 96 96 95 95 94 82 80 90 94 96 96 100 98 96 92 92 91 88 90 92 89 100 96 97 100 94 86 92 100 100 100 100
85 88 94 86 76 74 73 78 67 72 90 95 95 96 96 97 96 76 67 85 84 97 99 97 98 96 95 97 99 100 99 100 99 100 97 96 89 80 95 100 100 100 100
92 87 93 92 77 74 71 67 90 92 95 96 96 95 85 77 77 75 82 95 77 88 99 98 98 98 99 98 98 97 96 97 98 99 97 97 100 100 100 100 100 100 100
96 98 99 96 98 92 86 90 95 91 100 94 96 96 98 98 99 100 100 100 99 99 98 100 100 99 100 99 98 98 97 97 94 97 97 100 100 100 100 100 100 100 100
Wind_Speed
24 24 23 23 22 19 17 16 16 17 17 18 18 18 17 15 14 15 14 17 14 21 19 12 6 6 10 10 10 10 11 13 14 15 15 13 14 13 14 11 8 6 13
27 27 24 22 20 18 17 15 14 13 13 13 16 17 19 17 16 17 16 17 15 18 16 15 8 9 8 8 7 10 10 12 12 10 10 10 11 10 4 1 2 10 17
29 27 24 22 21 19 15 14 12 11 11 10 11 12 13 14 12 13 15 16 9 9 22 11 10 8 7 9 4 13 9 13 12 10 11 10 6 6 5 8 11 13 22
30 28 25 24 23 18 17 15 14 12 11 12 10 9 8 7 8 8 2 14 8 6 11 12 7 9 6 8 7 16 9 3 3 4 6 7 9 9 11 12 16 20 23
31 30 28 26 23 21 20 18 16 15 14 12 10 8 6 5 6 8 5 3 3 8 4 11 6 16 10 11 9 6 2 2 3 7 3 12 15 15 17 20 25 25 23
35 32 29 28 26 25 24 22 20 19 17 14 12 12 10 9 8 8 10 13 12 12 7 7 10 7 5 11 18 6 7 7 11 20 23 18 19 19 21 23 25 26 28
38 35 32 30 29 28 27 25 24 23 21 18 16 14 14 12 11 11 11 13 14 15 16 17 19 19 23 18 22 24 25 22 21 20 19 19 21 22 24 25 27 28 30
40 39 36 34 32 30 30 29 28 26 24 22 21 18 17 16 15 14 13 13 13 16 18 18 19 20 20 20 21 29 32 33 25 23 23 23 23 24 25 25 27 29 31
42 42 40 38 36 34 33 32 31 29 28 25 23 23 21 20 18 17 16 16 16 16 17 19 20 21 21 22 26 29 31 29 29 27 26 25 24 24 25 27 30 33 34
44 43 41 39 38 37 36 34 34 32 31 29 27 26 25 24 23 21 21 21 21 21 21 22 24 25 25 26 28 31 31 31 30 30 27 27 27 27 30 32 33 33 35
46 44 42 41 40 40 38 36 36 35 33 32 31 30 28 26 25 25 24 25 26 27 28 29 30 29 29 30 31 31 30 28 28 28 29 30 31 33 34 35 35 34 35
44 44 44 44 44 42 41 39 38 38 36 35 34 32 30 29 29 27 27 26 27 28 29 30 30 30 30 30 31 30 30 29 31 31 32 33 34 35 36 36 37 40 40
45 44 44 44 45 44 43 41 39 39 37 37 37 34 32 32 30 29 29 30 29 29 28 29 30 29 30 31 32 33 34 35 35 35 36 36 37 37 37 39 40 43 43
48 46 45 45 45 43 43 43 42 41 39 39 37 36 36 35 35 34 33 32 32 31 31 32 34 33 34 34 35 36 38 39 39 38 40 40 41 42 43 42 42 43 45
51 50 49 47 46 45 44 44 43 41 43 42 41 40 39 39 38 36 36 36 34 35 35 34 36 39 38 38 39 40 41 41 40 41 42 43 44 45 46 45 46 48 47
55 54 53 51 50 49 48 47 47 46 47 47 45 44 43 42 40 39 40 39 39 38 37 41 42 42 42 42 41 43 43 44 44 45 45 45 46 47 47 48 51 50 50
60 59 57 55 54 53 52 51 51 51 52 52 49 48 46 44 43 44 44 43 45 41 45 46 44 43 45 44 46 47 46 46 48 48 47 46 48 49 51 54 53 53 55
61 59 61 57 56 57 56 56 56 56 56 55 53 51 51 48 47 48 53 48 42 50 46 42 43 42 42 46 49 51 50 50 49 47 49 52 51 53 53 54 56 58 57
62 59 63 56 60 46 62 57 61 62 62 60 56 60 57 58 52 47 50 51 49 49 44 46 45 47 49 50 49 50 49 49 50 50 53 53 57 58 58 58 58 56 56
65 64 64 63 61 60 62 52 59 65 55 59 54 49 55 56 56 51 45 47 48 47 49 50 49 51 53 51 49 50 51 51 53 56 54 56 58 60 61 62 60 58 59
69 69 68 68 64 67 67 66 60 50 46 47 51 45 47 41 49 47 46 43 42 52 55 55 56 56 56 54 52 53 53 56 57 58 57 59 60 60 61 62 63 63 65
71 70 69 70 67 69 65 65 69 65 61 56 55 56 56 57 58 53 54 53 53 48 52 61 57 56 55 54 54 53 57 60 63 64 65 64 64 65 63 65 65 67 72
73 73 73 73 71 71 69 67 66 69 67 62 61 57 59 57 57 59 58 56 48 52 56 54 53 54 54 55 58 59 62 66 67 66 63 64 61 61 63 64 65 69 70
73 71 71 71 71 69 68 68 65 64 64 62 59 58 56 57 57 55 55 55 53 56 57 57 57 56 61 59 58 57 59 59 60 59 60 60 64 64 66 67 71 73 72
74 71 70 69 68 66 65 63 61 62 62 60 59 57 56 55 55 55 54 54 56 63 62 58 59 60 61 60 53 54 55 59 61 65 66 63 67 71 70 72 71 70 69
73 72 72 70 68 68 64 62 62 60 58 57 57 57 57 56 56 55 59 60 61 62 64 66 64 65 65 66 62 59 62 63 65 65 68 69 72 71 67 68 68 69 68
Wind_Direction
213 210 207 219 222 227 236 237 241 243 246 247 247 242 240 234 235 232 264 250 261 238 248 252 224 235 221 232 250 259 268 272 274 277 286 294 301 313 317 318 328 32 19
206 208 212 219 217 221 227 230 235 237 243 243 237 237 235 240 247 233 246 260 271 236 215 217 182 188 168 235 234 256 271 279 277 277 284 298 312 325 333 195 255 351 353
208 207 212 213 213 217 223 223 225 227 234 237 241 243 244 250 266 257 253 248 262 242 221 189 182 168 160 188 261 266 266 280 279 282 289 285 297 277 254 264 288 306 330
209 211 213 215 215 218 219 216 215 216 217 223 226 231 238 241 248 239 274 245 242 235 202 215 182 152 171 150 197 281 290 258 291 272 306 301 288 259 270 279 275 308 299
214 216 216 217 217 220 219 218 218 217 213 214 216 218 228 245 248 242 220 230 287 306 240 232 222 217 190 201 221 162 346 177 34 322 316 325 292 283 275 291 295 298 300
216 217 218 220 219 219 220 222 225 223 219 225 236 248 249 251 253 250 242 231 229 220 233 265 300 239 17 206 184 173 174 249 275 286 292 295 283 284 289 294 301 306 307
215 215 217 220 221 223 223 225 228 231 232 235 244 249 249 251 251 249 247 244 244 240 236 232 244 247 259 255 256 253 277 313 286 281 284 282 287 293 296 300 303 305 307
216 218 218 222 224 226 227 228 231 233 236 239 244 248 252 255 253 253 250 248 242 242 254 259 260 265 262 265 242 254 253 285 285 286 288 290 292 297 301 303 302 302 303
217 220 222 224 226 228 230 231 233 235 237 240 245 247 252 255 256 256 256 255 255 253 255 260 260 260 263 261 266 262 272 280 283 284 286 289 292 294 295 298 301 306 308
220 222 226 228 230 232 233 234 236 237 238 242 244 246 246 251 254 256 259 263 264 264 263 262 264 265 267 269 269 272 276 280 285 289 291 293 294 296 298 300 303 304 305
226 225 226 229 231 233 235 237 239 239 240 242 244 245 247 249 253 257 260 263 266 268 269 270 272 273 275 274 274 275 278 283 285 286 287 289 292 295 297 300 300 300 300
229 230 230 232 233 235 236 238 239 242 242 243 246 244 245 247 250 253 258 261 264 267 270 271 271 272 273 274 275 275 278 279 281 283 285 287 290 293 298 300 302 303 305
230 232 233 234 236 237 238 239 240 241 241 242 244 246 247 248 252 254 258 263 264 267 270 271 271 271 273 274 274 276 278 281 283 284 286 289 292 295 299 300 299 301 301
229 232 234 235 235 236 237 237 237 239 240 243 244 245 247 250 254 256 260 261 265 265 267 269 266 268 273 276 276 278 280 283 284 286 288 290 294 296 297 297 299 300 301
228 229 232 234 236 235 237 239 240 240 244 245 245 246 249 252 254 257 262 262 265 267 269 266 265 266 269 273 276 276 280 281 281 283 284 286 290 294 295 295 298 299 297
231 231 231 232 235 238 240 242 243 244 246 246 247 248 252 254 256 256 259 266 270 266 271 268 271 266 267 272 274 274 278 278 280 281 282 285 288 292 292 294 296 297 298
229 230 230 232 234 236 238 242 245 247 249 251 250 251 251 256 256 262 265 266 269 266 276 270 265 268 269 271 275 274 275 278 279 280 281 283 287 289 290 292 293 295 296
230 233 235 233 236 239 240 241 246 250 249 250 251 249 254 256 258 264 264 265 264 274 274 267 264 264 267 276 278 275 273 277 277 277 281 284 284 287 290 291 292 292 292
234 230 235 231 238 234 244 244 247 247 249 252 255 256 260 253 255 265 264 262 273 271 265 265 267 267 275 280 277 276 274 274 276 278 282 282 284 286 290 294 293 290 290
234 235 238 239 239 243 240 244 248 241 252 247 241 247 252 252 260 260 263 263 267 270 270 264 266 273 276 278 277 275 276 277 278 281 281 281 285 287 291 293 292 290 290
236 237 239 243 247 247 250 247 240 242 247 247 243 242 242 247 253 260 257 260 271 270 268 266 269 271 272 273 272 273 276 277 280 281 279 282 286 288 292 290 290 288 290
237 238 241 242 246 250 254 256 260 255 256 260 265 263 266 266 268 272 267 273 275 280 273 272 270 269 266 267 269 270 273 274 275 278 278 282 285 288 291 290 289 287 286
240 242 244 245 248 250 253 256 259 262 265 266 267 268 267 268 270 273 274 273 270 267 264 263 270 268 269 269 270 272 269 274 275 277 278 282 283 290 291 290 288 288 291
243 243 244 246 249 251 253 256 259 259 263 265 265 266 268 268 268 269 269 270 266 264 261 267 269 268 271 269 269 271 272 275 277 280 280 282 288 291 291 291 292 293 292
245 245 246 248 250 252 254 256 259 258 264 262 263 263 264 265 265 265 265 265 265 264 268 268 268 269 266 268 276 280 280 276 282 279 283 286 284 290 288 287 288 289 289
243 247 246 247 249 249 250 253 255 259 256 258 257 260 261 263 265 267 266 265 263 264 263 263 265 269 272 274 284 279 275 279 281 283 284 282 281 282 284 286 287 288 288